Regional Weather Roundup
Issued by NWS

Home | Current Version | Previous Version | Graphics & Text | Print | Product List | Glossary On
Versions: 1 2 3 4 5 6 7 8 9 10 11 12 13 14 15 16 17 18 19 20 21 22 23 24 25 26 27 28 29 30 31 32 33 34 35 36 37 38 39 40 41 42 43 44 45 46 47 48 49 50
000
ASUS43 KMPX 241701
RWRMN
WEATHER ROUNDUP FOR MINNESOTA
NATIONAL WEATHER SERVICE TWIN CITIES/CHANHASSEN MN
1100 AM CST WED DEC 24 2014


NOTE: "FAIR" INDICATES FEW OR NO CLOUDS BELOW 12,000 FEET WITH NO
SIGNIFICANT WEATHER AND/OR OBSTRUCTIONS TO VISIBILITY. N/A MEANS
CURRENT SKY AND/OR WEATHER CONDITIONS ARE NOT AVAILABLE.

MNZ060>063-068>070-241800-
   Twin Cities Metro

CITY           SKY/WX    TMP DP  RH WIND       PRES   REMARKS
TWIN CITIES    CLOUDY    35  31  85 NW8       29.74F WCI  29
ST PAUL        CLOUDY    35  32  88 NW7       29.74F WCI  29
CRYSTAL        CLOUDY    36  31  82 NW9       29.74F
BLAINE         CLOUDY    36  36 100 NW9       29.74F
LAKEVILLE      CLOUDY    34  30  86 NW9       29.73F WCI  26
EDEN PRAIRIE   CLOUDY    35  30  82 W7        29.74F WCI  29
SOUTH ST PAUL  CLOUDY    36  32  86 N7        29.73F
LAKE ELMO      CLOUDY    36  34  93 N6        29.73F
$$
MNZ001>005-007-008-013>017-022>024-027-028-241800-
   Northwest Minnesota

CITY           SKY/WX    TMP DP  RH WIND       PRES   REMARKS
BEMIDJI        CLOUDY    30  30  99 W5        29.72F FOG     WCI  25
HALLOCK        CLOUDY    28  25  86 S8        29.72F WCI  20
ROSEAU         CLOUDY    30  27  86 W6        29.72F WCI  24
WARROAD        CLOUDY    30  27  86 CALM      29.72F
THIEF RVR FALL CLOUDY    28  27  93 S6        29.74F WCI  22
CROOKSTON      CLOUDY    28  27  93 SW9       29.76F WCI  20
FOSSTON        LGT SNOW  28  27  93 W5        29.74F WCI  23
DETROIT LAKES  MIX PCPN  30  30 100 W5        29.75F WCI  25
MOORHEAD       CLOUDY    28  28 100 W9        29.78F WCI  20
PARK RAPIDS    CLOUDY    32  29  88 W6        29.71F WCI  26
MAHNOMEN       CLOUDY    29  28  94 W6        29.75F WCI  23
$$
MNZ006-009>011-018-025>026-241800-
   North Central Minnesota

CITY           SKY/WX    TMP DP  RH WIND       PRES   REMARKS
BAUDETTE       CLOUDY    31  29  92 CALM      29.70F
FLAG ISLAND    CLOUDY    30  28  93 SW3       29.70F
INTL FALLS     CLOUDY    33  31  92 CALM      29.69F FOG
WASKISH        MIX PCPN  32  32 100 CALM      29.71F VSB 1/4
BIG FORK       CLOUDY    34  32  93 CALM      29.70F
LONGVILLE      CLOUDY    30  30 100 W3        29.72F
GRAND RAPIDS   CLOUDY    32  30  93 NW3       29.71F
CRANE LAKE     CLOUDY    30  30 100 CALM      29.72F
ORR            CLOUDY    32  30  93 CALM      29.67F FOG
COOK           CLOUDY    30  30 100 CALM      29.70F
WALKER         CLOUDY    31  29  95 W5        29.73F WCI  26
$$
MNZ012-019>021-037-241800-
   Northeast Minnesota

CITY           SKY/WX    TMP DP  RH WIND       PRES   REMARKS
DULUTH         CLOUDY    33  27  78 N8        29.69F WCI  26
ELY            CLOUDY    30  28  93 CALM      29.68F
HIBBING        CLOUDY    33  29  85 CALM      29.70F
EVELETH        CLOUDY    32  32 100 CALM      29.71F
DULUTH HARBOR  CLOUDY    36  30  80 CALM      29.73F
TWO HARBORS    PTSUNNY   37  30  75 N5        29.68F
SILVER BAY     CLOUDY    37  28  70 N3        29.68F
GRAND MARAIS     N/A     36  29  75 CALM      29.70F
G MARAIS ARPRT CLOUDY    28  25  86 N6        29.66F FOG     WCI  22
$$
MNZ029>031-032-039>041-046>048-054>057-064-241800-
   West Central Minnesota

CITY           SKY/WX    TMP DP  RH WIND       PRES   REMARKS
FERGUS FALLS   CLOUDY    28  28 100 NW6       29.80F FOG     WCI  22
WHEATON        CLOUDY    25  25 100 W7        29.82F WCI  17
MORRIS         CLOUDY    30  28  93 NW8       29.77F WCI  23
ALEXANDRIA     CLOUDY    30  29  96 NW9       29.75F FOG     WCI  22
ELBOW LAKE     CLOUDY    28  28  99 W7        29.77F FOG     WCI  21
WADENA         CLOUDY    28  28 100 W3        29.74  FOG
GLENWOOD       FOG       30  28  93 W8        29.76F VSB 1/4 WCI  23
APPLETON       CLOUDY    30  28  93 W9        29.79F FOG     WCI  22
BENSON         MIX PCPN  30  28  93 N9        29.78F WCI  22
ORTONVILLE     CLOUDY    28  25  86 W9        29.79F WCI  20
MADISON          N/A     34  30  86 NW8       29.80F WCI  27
WILLMAR        CLOUDY    32  30  93 NW9       29.79F WCI  24
$$
MNZ033>034-036-042>043-049>051-058-059-241800-
   Central Minnesota

CITY           SKY/WX    TMP DP  RH WIND       PRES   REMARKS
ST CLOUD       CLOUDY    36  30  79 NW7       29.75F
SAUK CENTRE    CLOUDY    31  30  98 W8        29.76F FOG     WCI  23
PAYNESVILLE    CLOUDY    29  29 100 W9        29.77S WCI  21
AITKIN         CLOUDY    36  30  80 CALM      29.71F
PINE RIVER     CLOUDY    32  32 100 CALM      29.76F
BRAINERD       CLOUDY    33  31  92 W6        29.73F WCI  28
STAPLES        CLOUDY    30  30 100 W6        29.74F WCI  24
LONG PRAIRIE   CLOUDY    30  30 100 W7        29.75F WCI  23
LITTLE FALLS   CLOUDY    32  32 100 NW5       29.75F WCI  27
LITCHFIELD     CLOUDY    34  34 100 NW6       29.77F FOG     WCI  29
BUFFALO        CLOUDY    34  30  86 NW5       29.76F WCI  30
MAPLE LAKE     CLOUDY    35  32  90 NW5       29.76F WCI  30
$$
MNZ037-044-045-052-053-241800-
   East Central Minnesota

CITY           SKY/WX    TMP DP  RH WIND       PRES   REMARKS
PRINCETON      CLOUDY    36  30  80 CALM      29.74F
MORA           CLOUDY    34  30  86 N3        29.75F
CAMBRIDGE      CLOUDY    36  28  75 NW3       29.72F
RUSH CITY      CLOUDY    35  32  87 NW5       29.73F WCI  31
MOOSE LAKE     CLOUDY    34  32  93 N3        29.70F
HINCKLEY       CLOUDY    36  32  87 CALM      29.73F
CLOQUET        CLOUDY    34  30  86 NE6       29.70F WCI  29
MCGREGOR       CLOUDY    32  32 100 NW3       29.72F
$$
MNZ071>073-080-081-089-090-097-098-241800-
   Southwest Minnesota

CITY           SKY/WX    TMP DP  RH WIND       PRES   REMARKS
MONTEVIDEO     CLOUDY    30  30 100 N6        29.81F WCI  24
GRANITE FALLS  CLOUDY    31  29  94 NW10      29.82F WCI  22
CANBY          CLOUDY    30  28  90 W9        29.81F WCI  22
MARSHALL       CLOUDY    30  25  80 NW12      29.81F WCI  21
REDWOOD FALLS  CLOUDY    32  30  92 NW8       29.79F WCI  25
OLIVIA         CLOUDY    30  30 100 NW8       29.77F FOG     WCI  23
PIPESTONE      CLOUDY    28  27  93 NW7       29.80S FOG     WCI  21
WINDOM         LGT SNOW  30  30 100 NW12      29.78F WCI  21
WORTHINGTON    CLOUDY    30 -17  12 NW13      29.79F WCI  20
JACKSON        CLOUDY    32  30  93 NW12      29.78F WCI  23
TRACY          LGT SNOW  31  30  95 NW9       29.80F WCI  23
SLAYTON        CLOUDY    30  29  96 NW9       29.80F WCI  21
$$
MNZ065>067-074>077-082>085-091>093-241800-
   South Central Minnesota

CITY           SKY/WX    TMP DP  RH WIND       PRES   REMARKS
MANKATO        CLOUDY    34  28  80 NW9       29.76F WCI  26
NEW ULM        CLOUDY    32  30  93 NW9       29.78F FOG     WCI  24
FAIRMONT       CLOUDY    32  27  80 NW10      29.77F WCI  24
GLENCOE        CLOUDY    35  32  89 NW7       29.76F WCI  29
FARIBAULT      CLOUDY    36  32  87 NW9       29.74F
OWATONNA       PTSUNNY   36  32  87 NW10      29.73F
ALBERT LEA     CLOUDY    34  34 100 N8        29.73F FOG     WCI  27
$$
MNZ078>079-086>088-094>096-241800-
   Southeast Minnesota

CITY           SKY/WX    TMP DP  RH WIND       PRES   REMARKS
ROCHESTER      CLOUDY    33  31  92 NW15      29.70F WCI  23
RED WING       CLOUDY    36  32  87 N5        29.72F
STANTON        CLOUDY    37  32  84 N9        29.72F
DODGE CENTER   CLOUDY    34  34 100 N12       29.70F WCI  25
WINONA         CLOUDY    36  32  87 NW8       29.69F
AUSTIN         CLOUDY    34  30  86 NW10      29.70F WCI  26
PRESTON        CLOUDY    33  31  91 N12       29.68F WCI  24
$$
ABBREVIATIONS USED IN REMARKS
   TC - TEMPERATURES IN CELSIUS
  WCI - WIND CHILL INDEX
   HX - HEAT INDEX
  VSB - VISIBILITY
$$


USA.gov is the U.S. government's official web portal to all federal, state and local government web resources and services.